{"data":{"norad_id":53730,"epoch":"2026-05-24T17:40:48.563616Z","epoch_age_seconds":90991,"freshness":"FRESH","line1":"1 53730U 22107AG  26144.73667319  .00000146  00000+0  27254-4 0  9993","line2":"2 53730  53.2155 272.7633 0001183  89.9422 270.1706 15.08837339206039","mean_motion":15.08837339,"eccentricity":0.0001183,"inclination_deg":53.2155,"raan_deg":272.7633,"arg_perigee_deg":89.9422,"mean_anomaly_deg":270.1706,"bstar":2.7254e-5,"rev_number":20603,"period_min":95.437722992352,"perigee_km":538.93313637629,"apogee_km":540.56990880073,"semimajor_km":6917.8885225885,"source":"CELESTRAK","updated_at":"2026-05-25T13:38:17.537033Z"}}